{"data":{"norad_id":50183,"intl_designator":"2021-125AD","name":"STARLINK-3281","alt_names":[],"object_type":"PAYLOAD","status":"ACTIVE","operator":null,"country":"US","launch_date":"2021-12-18","launch_site_code":"AFWTR","launch_vehicle":null,"mission":null,"orbit_class":"UNKNOWN","rcs_meters":null,"size_class":null,"mass_kg":null,"dimensions":null,"purposes":["comms"],"wikipedia_slug":null,"has_3d_model":false,"image_url":null,"decayed_at":null,"tle_current":{"epoch":"2026-05-25T00:58:39.173088Z","epoch_age_seconds":64846,"freshness":"FRESH","line1":"1 50183U 21125AD  26145.04073117  .00000988  00000+0  80204-4 0  9991","line2":"2 50183  53.2127 266.3663 0001295  93.4625 266.6515 15.08831055248176","mean_motion":15.08831055,"eccentricity":0.0001295,"inclination_deg":53.2127,"raan_deg":266.3663,"arg_perigee_deg":93.4625,"mean_anomaly_deg":266.6515,"bstar":8.0204e-5,"rev_number":24817,"period_min":95.438120472673,"perigee_km":538.87486133459,"apogee_km":540.66659943676,"semimajor_km":6917.9077303857,"source":"CELESTRAK","updated_at":"2026-05-25T13:38:16.868714Z"}}}